Location: Borgo
(42.3939°N, 9.2791°E)
Time: 13:15:18
(UTC+00:00)

ISS - Pass Details

Date: 29 April 2021
Orbit: 417 x 422 km, 51.6° (Epoch: 15 May)

Event Time Altitude Azimuth Distance (km) Brightness Sun altitude
Exits shadow 03:02:41 26° 241° (WSW) 856 -2.8 -13.6°
Maximum altitude 03:04:25 81° 325° (NW) 429 -3.8 -13.3°
Drops below altitude 10° 03:07:49 10° 55° (NE) 1,507 0.6 -12.8°
Sets 03:09:55 0° 56° (NE) 2,375 2.2 -12.5°
